When you browse on this site, cookies collect data to enhance your experience and personalize the content and advertising you see.
Visit our Privacy Policy to learn more. By continuing to use the site, you agree to this use of cookies and data.
  • In Hungary
  • List of Countries
  • For 7 days
  • Water Temperature
  • Satellite Maps
  • Weather Map
  • News
  • Weather Widgets
  • user-avatar
    Login

    Hourly Weather Kalkan

    Today, 20 February, Wednesday

    Time Temperature Precipitation Wind Pressure Humidity
    00:00 +13°C° 0 mm 2 mps 763 mmHg 76%
    01:00 +13°C° 0 mm 2 mps 763 mmHg 77%
    02:00 +12°C° 0 mm 2 mps 763 mmHg 78%
    03:00 +12°C° 0 mm 2 mps 763 mmHg 79%
    04:00 +12°C° 0 mm 1 mps 763 mmHg 79%
    05:00 +12°C° 0 mm 1 mps 762 mmHg 80%
    06:00 +13°C° 0 mm 1 mps 763 mmHg 78%
    07:00 +13°C° 0 mm 1 mps 763 mmHg 77%
    08:00 +13°C° 0 mm 0 mps 763 mmHg 75%
    09:00 +15°C° 0 mm 1 mps 763 mmHg 72%
    10:00 +16°C° 0 mm 1 mps 763 mmHg 69%
    11:00 +18°C° 0 mm 1 mps 763 mmHg 65%
    12:00 +18°C° 0 mm 1 mps 763 mmHg 67%
    13:00 +17°C° 0 mm 2 mps 762 mmHg 68%
    14:00 +17°C° 0 mm 2 mps 762 mmHg 70%
    15:00 +17°C° 0.1 mm 2 mps 762 mmHg 73%
    16:00 +16°C° 0.1 mm 1 mps 762 mmHg 77%
    17:00 +16°C° 0.1 mm 1 mps 762 mmHg 80%
    18:00 +15°C° 0.1 mm 1 mps 762 mmHg 83%
    19:00 +14°C° 0.1 mm 1 mps 763 mmHg 87%
    20:00 +12°C° 0.1 mm 0 mps 763 mmHg 90%
    21:00 +12°C° 0 mm 0 mps 763 mmHg 90%
    22:00 +12°C° 0 mm 0 mps 763 mmHg 90%
    23:00 +12°C° 0 mm 0 mps 763 mmHg 89%

    Tomorrow, 21 February, Thursday

    Time Temperature Precipitation Wind Pressure Humidity
    00:00 +12°C° 0 mm 0 mps 763 mmHg 89%
    01:00 +11°C° 0 mm 0 mps 763 mmHg 88%
    02:00 +11°C° 0 mm 0 mps 763 mmHg 87%
    03:00 +11°C° 0 mm 0 mps 763 mmHg 87%
    04:00 +12°C° 0 mm 1 mps 763 mmHg 86%
    05:00 +12°C° 0 mm 1 mps 762 mmHg 85%
    06:00 +12°C° 0 mm 0 mps 762 mmHg 82%
    07:00 +12°C° 0 mm 0 mps 763 mmHg 79%
    08:00 +13°C° 0 mm 0 mps 763 mmHg 76%
    09:00 +15°C° 0 mm 1 mps 763 mmHg 71%
    10:00 +16°C° 0 mm 1 mps 763 mmHg 66%
    11:00 +18°C° 0 mm 1 mps 763 mmHg 61%
    12:00 +18°C° 0.4 mm 1 mps 763 mmHg 63%
    13:00 +17°C° 0.4 mm 2 mps 763 mmHg 64%
    14:00 +17°C° 0.4 mm 2 mps 762 mmHg 66%
    15:00 +17°C° 0.6 mm 2 mps 762 mmHg 70%
    16:00 +16°C° 0.6 mm 2 mps 762 mmHg 73%
    17:00 +16°C° 0.6 mm 2 mps 762 mmHg 77%
    18:00 +15°C° 0.3 mm 2 mps 762 mmHg 79%
    19:00 +14°C° 0.3 mm 2 mps 763 mmHg 82%
    20:00 +13°C° 0.3 mm 1 mps 763 mmHg 84%
    21:00 +13°C° 0.1 mm 1 mps 763 mmHg 81%
    22:00 +13°C° 0.1 mm 1 mps 763 mmHg 79%
    23:00 +13°C° 0.1 mm 1 mps 764 mmHg 77%

    Day after tomorrow, 22 February, Friday

    Time Temperature Precipitation Wind Pressure Humidity
    00:00 +13°C° 0 mm 1 mps 763 mmHg 74%
    01:00 +13°C° 0 mm 1 mps 763 mmHg 71%
    02:00 +12°C° 0 mm 1 mps 763 mmHg 69%
    03:00 +12°C° 0 mm 1 mps 763 mmHg 67%
    04:00 +12°C° 0 mm 1 mps 762 mmHg 66%
    05:00 +12°C° 0 mm 1 mps 762 mmHg 64%
    06:00 +13°C° 0 mm 1 mps 762 mmHg 64%
    07:00 +13°C° 0 mm 1 mps 762 mmHg 63%
    08:00 +14°C° 0 mm 1 mps 762 mmHg 63%
    09:00 +15°C° 0 mm 1 mps 762 mmHg 60%
    10:00 +16°C° 0 mm 1 mps 762 mmHg 57%
    11:00 +18°C° 0 mm 1 mps 761 mmHg 54%
    12:00 +17°C° 0 mm 2 mps 761 mmHg 53%
    13:00 +17°C° 0 mm 2 mps 760 mmHg 53%
    14:00 +17°C° 0 mm 2 mps 760 mmHg 52%
    15:00 +17°C° 0 mm 2 mps 759 mmHg 56%
    16:00 +16°C° 0 mm 2 mps 759 mmHg 59%
    17:00 +14°C° 0 mm 3 mps 759 mmHg 63%
    18:00 +13°C° 0 mm 3 mps 759 mmHg 65%
    19:00 +12°C° 0 mm 3 mps 759 mmHg 67%
    20:00 +11°C° 0 mm 3 mps 759 mmHg 69%
    21:00 +11°C° 0 mm 3 mps 759 mmHg 69%
    22:00 +11°C° 0 mm 3 mps 759 mmHg 68%
    23:00 +11°C° 0 mm 3 mps 759 mmHg 67%

    23 February, Saturday

    Time Temperature Precipitation Wind Pressure Humidity
    00:00 +11°C° 0 mm 3 mps 759 mmHg 66%
    01:00 +12°C° 0 mm 2 mps 758 mmHg 65%
    02:00 +12°C° 0 mm 2 mps 758 mmHg 64%
    03:00 +10°C° 0 mm 2 mps 758 mmHg 62%
    04:00 +10°C° 0 mm 2 mps 757 mmHg 60%
    05:00 +10°C° 0 mm 2 mps 757 mmHg 57%
    06:00 +12°C° 0.2 mm 2 mps 757 mmHg 62%
    07:00 +12°C° 0.2 mm 2 mps 756 mmHg 67%
    08:00 +11°C° 0.2 mm 3 mps 756 mmHg 72%
    09:00 +11°C° 1.9 mm 3 mps 756 mmHg 78%
    10:00 +11°C° 1.9 mm 4 mps 756 mmHg 84%
    11:00 +11°C° 1.9 mm 4 mps 756 mmHg 90%
    12:00 +11°C° 4.5 mm 4 mps 755 mmHg 91%
    13:00 +11°C° 4.5 mm 4 mps 754 mmHg 93%
    14:00 +11°C° 4.5 mm 4 mps 753 mmHg 94%
    15:00 +11°C° 2.7 mm 4 mps 753 mmHg 92%
    16:00 +12°C° 2.7 mm 3 mps 753 mmHg 91%
    17:00 +12°C° 2.7 mm 3 mps 753 mmHg 89%
    18:00 +12°C° 1.7 mm 3 mps 753 mmHg 90%
    19:00 +12°C° 1.7 mm 3 mps 753 mmHg 91%
    20:00 +12°C° 1.7 mm 3 mps 753 mmHg 92%
    21:00 +12°C° 3.1 mm 4 mps 753 mmHg 93%
    22:00 +12°C° 3.1 mm 5 mps 752 mmHg 95%
    23:00 +11°C° 3.1 mm 6 mps 752 mmHg 96%

    24 February, Sunday

    Time Temperature Precipitation Wind Pressure Humidity
    00:00 +11°C° 4 mm 7 mps 752 mmHg 96%
    01:00 +11°C° 4 mm 7 mps 751 mmHg 96%
    02:00 +11°C° 4 mm 8 mps 751 mmHg 96%
    03:00 +11°C° 2.5 mm 7 mps 751 mmHg 96%
    04:00 +11°C° 2.5 mm 7 mps 751 mmHg 96%
    05:00 +10°C° 2.5 mm 7 mps 750 mmHg 95%
    06:00 +10°C° 2.2 mm 6 mps 750 mmHg 94%
    07:00 +10°C° 2.2 mm 6 mps 751 mmHg 94%
    08:00 +10°C° 2.2 mm 6 mps 751 mmHg 93%
    09:00 +10°C° 2.6 mm 6 mps 751 mmHg 93%
    10:00 +10°C° 2.6 mm 6 mps 751 mmHg 93%
    11:00 +10°C° 2.6 mm 6 mps 752 mmHg 93%
    12:00 +10°C° 2.8 mm 6 mps 751 mmHg 94%
    13:00 +10°C° 2.8 mm 5 mps 751 mmHg 94%
    14:00 +10°C° 2.8 mm 5 mps 751 mmHg 94%
    15:00 +10°C° 2 mm 6 mps 751 mmHg 91%
    16:00 +10°C° 2 mm 6 mps 751 mmHg 88%
    17:00 +10°C° 2 mm 6 mps 751 mmHg 86%
    18:00 +9°C° 1 mm 6 mps 752 mmHg 85%
    19:00 +9°C° 1 mm 5 mps 752 mmHg 84%
    20:00 +9°C° 1 mm 5 mps 753 mmHg 83%
    21:00 +9°C° 1.1 mm 5 mps 753 mmHg 84%
    22:00 +10°C° 1.1 mm 4 mps 753 mmHg 85%
    23:00 +10°C° 1.1 mm 4 mps 754 mmHg 85%

    25 February, Monday

    Time Temperature Precipitation Wind Pressure Humidity
    00:00 +8°C° 1 mm 4 mps 754 mmHg 85%
    01:00 +8°C° 1 mm 4 mps 754 mmHg 85%
    02:00 +9°C° 1 mm 3 mps 754 mmHg 84%
    03:00 +9°C° 0.3 mm 3 mps 753 mmHg 84%
    04:00 +9°C° 0.3 mm 3 mps 753 mmHg 84%
    05:00 +8°C° 0.3 mm 2 mps 753 mmHg 84%
    06:00 +9°C° 0 mm 2 mps 753 mmHg 83%
    07:00 +10°C° 0 mm 2 mps 753 mmHg 81%
    08:00 +11°C° 0 mm 1 mps 753 mmHg 80%
    09:00 +12°C° 0 mm 2 mps 753 mmHg 76%
    10:00 +12°C° 0 mm 3 mps 754 mmHg 73%
    11:00 +12°C° 0 mm 3 mps 754 mmHg 70%
    12:00 +13°C° 0.1 mm 4 mps 753 mmHg 69%
    13:00 +13°C° 0.1 mm 4 mps 753 mmHg 68%
    14:00 +13°C° 0.1 mm 4 mps 753 mmHg 68%
    15:00 +12°C° 0.1 mm 4 mps 753 mmHg 69%
    16:00 +12°C° 0.1 mm 4 mps 753 mmHg 71%
    17:00 +12°C° 0.1 mm 4 mps 752 mmHg 72%
    18:00 +11°C° 0.3 mm 4 mps 752 mmHg 74%
    19:00 +10°C° 0.3 mm 4 mps 752 mmHg 76%
    20:00 +10°C° 0.3 mm 3 mps 752 mmHg 78%
    21:00 +10°C° 0.3 mm 3 mps 752 mmHg 76%
    22:00 +10°C° 0.3 mm 3 mps 752 mmHg 74%
    23:00 +9°C° 0.3 mm 3 mps 752 mmHg 72%
    Show more